Weather History for Harlingen, TX

Change the Weather History Date:

Friday, May 3, 2013

  Actual Average Record
Temperature  
Mean Temperature 64 °F 79 °F  
Max Temperature 75 °F 89 °F 100 °F (2002)
Min Temperature 53 °F 69 °F 46 °F (1942)
Degree Days  
Heating Degree Days 1 0  
Month to date heating degree days 1 0  
Since 1 July heating degree days 404 622  
Cooling Degree Days 0 14  
Month to date cooling degree days 27 40  
Year to date cooling degree days 672 654  
Growing Degree Days 14 (Base 50)    
Moisture  
Dew Point 33 °F    
Average Humidity 41    
Maximum Humidity 66    
Minimum Humidity 15    
Precipitation  
Precipitation 0.00 in 0.08 in 1.43 in (1972)
Month to date precipitation 0.00 0.22  
Year to date precipitation 5.31 5.65  
Sea Level Pressure  
Sea Level Pressure 30.22 in    
Wind  
Wind Speed 17 mph (NNW)    
Max Wind Speed 33 mph    
Max Gust Speed 41 mph    
Visibility 8 miles    
Events      
T = Trace of Precipitation, MM = Missing Value Source: NWS Daily Summary

Daily Weather History Graph

Daily Weather History Graph

Search for Another Location

Airport:

Trip Planner

Search our weather history database for the weather conditions in past years. The results will help you decide how hot, cold, wet, or windy it might be!

Date:

Astronomy

May. 03, 2013 Rise Set
Actual Time 6:51 AM CDT 8:03 PM CDT
Civil Twilight 6:27 AM CDT 8:28 PM CDT
Nautical Twilight 5:58 AM CDT 8:57 PM CDT
Astronomical Twilight 5:28 AM CDT 9:27 PM CDT
Moon 2:40 AM CDT (5/3) 2:33 PM CDT (5/3)
Length of Visible Light 14h 01m
Length of Day
13h 12m
Last Quarter, 37% of the Moon is Illuminated
May 3
Last Quarter
May 9
New
May 17
First Quarter
May 24
Full
May 31
Last Quarter

Hourly Weather History & Observations

Time (CDT) Temp. Dew Point Humidity Pressure Visibility Wind Dir Wind Speed Gust Speed Precip Events Conditions
12:52 AM 61.0 °F 46.0 °F 58% 30.24 in 10.0 mi North 20.7 mph 27.6 mph N/A   Overcast
1:52 AM 60.1 °F 43.0 °F 53% 30.24 in 10.0 mi North 23.0 mph - N/A   Overcast
2:52 AM 57.9 °F 39.9 °F 51% 30.23 in 4.0 mi North 33.4 mph 39.1 mph N/A   Haze
3:52 AM 57.0 °F 39.0 °F 51% 30.24 in 7.0 mi North 25.3 mph 32.2 mph N/A   Overcast
4:52 AM 55.9 °F 37.0 °F 49% 30.24 in 7.0 mi NNW 26.5 mph 33.4 mph N/A   Mostly Cloudy
5:25 AM 55.4 °F 35.6 °F 47% 30.24 in 4.0 mi NNW 24.2 mph 33.4 mph N/A   Haze
5:34 AM 55.4 °F 37.4 °F 51% 30.24 in 6.0 mi NNW 23.0 mph 33.4 mph N/A   Haze
5:52 AM 55.9 °F 36.0 °F 47% 30.25 in 7.0 mi NNW 24.2 mph 31.1 mph N/A   Scattered Clouds
6:01 AM 55.4 °F 35.6 °F 47% 30.25 in 6.0 mi NNW 24.2 mph 32.2 mph N/A   Haze
6:44 AM 55.4 °F 33.8 °F 44% 30.27 in 8.0 mi NNW 25.3 mph 33.4 mph N/A   Scattered Clouds
6:52 AM 55.9 °F 34.0 °F 44% 30.28 in 7.0 mi NNW 25.3 mph 32.2 mph N/A   Mostly Cloudy
7:52 AM 55.9 °F 30.0 °F 37% 30.32 in 5.0 mi North 24.2 mph 31.1 mph N/A   Haze
8:52 AM 59.0 °F 30.2 °F 34% 30.33 in 5.0 mi NNW 26.5 mph 34.5 mph N/A   Haze
9:52 AM 62.1 °F 28.0 °F 28% 30.35 in 9.0 mi NNW 28.8 mph 34.5 mph N/A   Clear
10:52 AM 63.0 °F 26.1 °F 25% 30.33 in 10.0 mi NNW 24.2 mph 35.7 mph N/A   Clear
11:52 AM 66.0 °F 28.0 °F 24% 30.32 in 10.0 mi NW 24.2 mph 31.1 mph N/A   Clear
12:52 PM 69.1 °F 27.0 °F 21% 30.29 in 10.0 mi NW 21.9 mph 31.1 mph N/A   Clear
1:52 PM 71.1 °F 26.1 °F 19% 30.25 in 10.0 mi NNW 21.9 mph 26.5 mph N/A   Clear
2:52 PM 72.0 °F 25.0 °F 17% 30.21 in 10.0 mi North 15.0 mph 31.1 mph N/A   Clear
3:52 PM 73.0 °F 25.0 °F 17% 30.17 in 10.0 mi North 10.4 mph 26.5 mph N/A   Clear
4:52 PM 73.9 °F 23.0 °F 15% 30.13 in 10.0 mi North 16.1 mph 23.0 mph N/A   Clear
5:52 PM 73.0 °F 23.0 °F 15% 30.12 in 10.0 mi North 8.1 mph - N/A   Clear
6:52 PM 72.0 °F 23.0 °F 16% 30.10 in 10.0 mi NNW 5.8 mph - N/A   Clear
7:52 PM 68.0 °F 27.0 °F 21% 30.10 in 10.0 mi North 6.9 mph - N/A   Clear
8:52 PM 60.1 °F 43.0 °F 53% 30.12 in 10.0 mi East 5.8 mph - N/A   Clear
9:52 PM 55.9 °F 43.0 °F 62% 30.13 in 10.0 mi SE 4.6 mph - N/A   Clear
10:52 PM 55.9 °F 44.1 °F 64% 30.13 in 10.0 mi SE 5.8 mph - N/A   Clear
11:52 PM 55.9 °F 44.1 °F 64% 30.12 in 10.0 mi SSE 4.6 mph - N/A   Clear